Saskatoon John G. Diefenbaker International Airport

Jump to: basic info | weather | frequencies | runways | comments

Related pages: nearby airports | nearby navaids | notams | map

Basic information (top)

Codes: YXE CYXE
Location: lon 52.170799, lat -106.699997, elev 1,653 ft / 504 m msl
Status: medium_airport
Scheduled airline service: yes
Links: Wikipedia Mobile

Weather (top)

Current conditions (rec'd 2015/04/19 04:00Z):

CYXE 190400Z 33011G19KT 15SM VCSH BKN028 05/01 A3006 RMK SC7 SLP199

Airport forecast (rec'd 2015/04/18 00:42Z):

TAF CYXE 182338Z 1900/1924 30015G25KT P6SM BKN060 
      TEMPO 1900/1905 P6SM -SHRA 
     FM190500 34015G25KT P6SM BKN025 
      TEMPO 1905/1914 P6SM -SHRA BKN015 
     FM191400 36015KT P6SM SCT040 
     FM192100 36015KT P6SM FEW060 
      RMK NXT FCST BY 190600Z

Frequencies (top)

Verify before use: may be inaccurate or out of date.

A/D: 119.9 MHz (APP/DEP)
A/G: 118.3 MHz (MF SASKATOON RDO)
ATIS: 128.4 MHz (ATIS)
CNTR: 134.325 MHz (WINNIPEG CNTR)
GND: 121.9 MHz (GND)
RCO: 122.5 MHz (EDMONTON RDO)
TWR: 118.3 MHz (TWR)

Runways (top)

09/27: 8,300 x 200 ft (2,530 x 61 m) — paved — lighted

15/33: 6,200 x 150 ft (1,890 x 46 m) — paved — lighted

Latest comments (top)

Timmies: Timmies in the main terminal. Park at ... [read]

More... (top)

See also NOTAMs and nearby airports and navaids, or visit the Saskatoon John G. Diefenbaker International Airport page at the main OurAirports website..